RYR35JJ LRCL-LFOB

Flight info

Callsign RYR35JJ
Flight time 2h 25m
Altitude 38000
Route ELROM DCT ADUKU DCT UVERA DCT BEGLA DCT LAMSI DCT MAMOR DCT ASPAT DCT VIBOM DCT BETEX DCT IDOSA DCT TOLVU/N0447F390 DCT RAPOR DCT VEDUS
Aircraft B738/M-SDE3FGILRWY/SB1

Departure

Time 2026-04-20 13:28
Airport Avram Iancu Cluj International Airport (LRCL)

Arrival

Time 2026-04-20 15:53
Airport Beauvais-Tillé airport (LFOB)
Time Latitude Longitude Altitude Speed Heading
2026-04-20 12:58 46.78311 23.68667 1032 ft 0 kts 212°
2026-04-20 13:22 46.78308 23.68665 1060 ft 2 kts 212°
2026-04-20 13:23 46.78307 23.68638 1032 ft 3 kts 318°
2026-04-20 13:23 46.78337 23.68651 1032 ft 7 kts 22°
2026-04-20 13:23 46.78403 23.68664 1032 ft 11 kts 349°
2026-04-20 13:23 46.78482 23.68639 1032 ft 12 kts 348°
2026-04-20 13:24 46.78527 23.68724 1032 ft 12 kts 79°
2026-04-20 13:24 46.78543 23.68844 1032 ft 12 kts 79°
2026-04-20 13:24 46.78559 23.68963 1032 ft 13 kts 79°
2026-04-20 13:24 46.78580 23.69119 1032 ft 16 kts 79°
2026-04-20 13:25 46.78605 23.69275 1032 ft 16 kts 57°
2026-04-20 13:25 46.78705 23.69261 1032 ft 15 kts 340°
2026-04-20 13:25 46.78801 23.69213 1032 ft 14 kts 341°
2026-04-20 13:25 46.78895 23.69179 1034 ft 14 kts 15°
2026-04-20 13:26 46.78943 23.69312 1034 ft 19 kts 72°
2026-04-20 13:26 46.78984 23.69497 1035 ft 20 kts 72°
2026-04-20 13:26 46.78997 23.69610 1034 ft 7 kts 84°
2026-04-20 13:26 46.79012 23.69613 1034 ft 2 kts 277°
2026-04-20 13:27 46.79005 23.69587 1035 ft 4 kts 251°
2026-04-20 13:27 46.78970 23.69431 1035 ft 47 kts 252°
2026-04-20 13:27 46.78782 23.68599 1030 ft 125 kts 252°
2026-04-20 13:27 46.78451 23.67132 1363 ft 161 kts 255°
2026-04-20 13:28 46.78116 23.65592 2365 ft 160 kts 256°
2026-04-20 13:28 46.77764 23.63993 3236 ft 172 kts 254°
2026-04-20 13:28 46.77354 23.62164 3579 ft 203 kts 253°
2026-04-20 13:28 46.76884 23.60098 3870 ft 229 kts 253°
2026-04-20 13:29 46.76358 23.57797 4255 ft 253 kts 252°
2026-04-20 13:29 46.75797 23.55367 5235 ft 250 kts 253°
2026-04-20 13:29 46.75417 23.52874 6085 ft 256 kts 267°
2026-04-20 13:29 46.75362 23.50278 6973 ft 258 kts 269°
2026-04-20 13:30 46.75320 23.47650 7817 ft 261 kts 269°
2026-04-20 13:30 46.75274 23.44985 8654 ft 265 kts 269°
2026-04-20 13:30 46.75220 23.42288 9553 ft 267 kts 269°
2026-04-20 13:30 46.75198 23.39563 10284 ft 274 kts 275°
2026-04-20 13:31 46.75523 23.36713 10535 ft 297 kts 283°
2026-04-20 13:31 46.76039 23.33676 10739 ft 320 kts 285°
2026-04-20 13:31 46.76622 23.30449 11154 ft 336 kts 285°
2026-04-20 13:31 46.77217 23.27132 11908 ft 339 kts 284°
2026-04-20 13:32 46.77799 23.23813 12849 ft 338 kts 284°
2026-04-20 13:32 46.78374 23.20461 13621 ft 343 kts 283°
2026-04-20 13:32 46.78946 23.17059 14248 ft 348 kts 283°
2026-04-20 13:32 46.79518 23.13618 14968 ft 350 kts 283°
2026-04-20 13:33 46.80089 23.10139 15677 ft 353 kts 283°
2026-04-20 13:33 46.80660 23.06641 16383 ft 356 kts 283°
2026-04-20 13:33 46.81233 23.03109 17100 ft 359 kts 283°
2026-04-20 13:33 46.81808 22.99551 17798 ft 362 kts 283°
2026-04-20 13:34 46.82386 22.95964 18420 ft 365 kts 283°
2026-04-20 13:34 46.82968 22.92338 18994 ft 368 kts 283°
2026-04-20 13:34 46.83554 22.88683 19572 ft 371 kts 282°
2026-04-20 13:34 46.84144 22.84999 20147 ft 374 kts 282°
2026-04-20 13:35 46.84736 22.81288 20698 ft 377 kts 282°
2026-04-20 13:35 46.85333 22.77542 21226 ft 380 kts 282°
2026-04-20 13:35 46.85932 22.73767 21762 ft 383 kts 282°
2026-04-20 13:35 46.86535 22.69961 22291 ft 386 kts 282°
2026-04-20 13:36 46.87142 22.66119 22809 ft 390 kts 282°
2026-04-20 13:36 46.87753 22.62245 23312 ft 392 kts 282°
2026-04-20 13:36 46.88366 22.58349 23827 ft 394 kts 282°
2026-04-20 13:36 46.88979 22.54444 24284 ft 395 kts 282°
2026-04-20 13:37 46.89595 22.50516 24685 ft 398 kts 282°
2026-04-20 13:37 46.90213 22.46559 25069 ft 401 kts 282°
2026-04-20 13:37 46.90835 22.42568 25456 ft 404 kts 282°
2026-04-20 13:37 46.91458 22.38557 25846 ft 406 kts 282°
2026-04-20 13:38 46.92076 22.34572 26242 ft 408 kts 282°
2026-04-20 13:38 46.92705 22.30509 26614 ft 411 kts 282°
2026-04-20 13:38 46.93336 22.26422 26964 ft 413 kts 282°
2026-04-20 13:38 46.93969 22.22307 27312 ft 416 kts 282°
2026-04-20 13:39 46.94604 22.18172 27762 ft 416 kts 282°
2026-04-20 13:39 46.95236 22.14041 28168 ft 417 kts 282°
2026-04-20 13:39 46.95871 22.09887 28479 ft 420 kts 282°
2026-04-20 13:39 46.96509 22.05697 28773 ft 423 kts 282°
2026-04-20 13:40 46.97148 22.01492 29140 ft 424 kts 282°
2026-04-20 13:40 46.97785 21.97289 29650 ft 421 kts 282°
2026-04-20 13:40 46.98415 21.93119 30157 ft 418 kts 282°
2026-04-20 13:40 46.99043 21.88957 30507 ft 418 kts 282°
2026-04-20 13:41 46.99669 21.84793 30777 ft 420 kts 282°
2026-04-20 13:41 47.00295 21.80616 31112 ft 420 kts 282°
2026-04-20 13:41 47.00918 21.76448 31546 ft 417 kts 282°
2026-04-20 13:41 47.01537 21.72300 31871 ft 417 kts 282°
2026-04-20 13:42 47.02155 21.68142 32128 ft 419 kts 282°
2026-04-20 13:42 47.03393 21.59785 32759 ft 419 kts 282°
2026-04-20 13:42 47.04009 21.55612 33069 ft 419 kts 282°
2026-04-20 13:43 47.04623 21.51434 33357 ft 419 kts 282°
2026-04-20 13:43 47.05236 21.47256 33660 ft 420 kts 282°
2026-04-20 13:43 47.05850 21.43067 33957 ft 420 kts 281°
2026-04-20 13:43 47.06458 21.38894 34269 ft 418 kts 282°
2026-04-20 13:44 47.06861 21.36133 34448 ft 417 kts 282°
2026-04-20 13:44 47.07465 21.31971 34669 ft 418 kts 282°
2026-04-20 13:44 47.08071 21.27791 34849 ft 420 kts 282°
2026-04-20 13:44 47.08676 21.23601 35064 ft 420 kts 282°
2026-04-20 13:45 47.09280 21.19410 35316 ft 420 kts 282°
2026-04-20 13:45 47.09883 21.15219 35541 ft 420 kts 282°
2026-04-20 13:45 47.10485 21.11018 35752 ft 420 kts 282°
2026-04-20 13:45 47.11084 21.06822 36016 ft 419 kts 282°
2026-04-20 13:46 47.11680 21.02642 36283 ft 418 kts 282°
2026-04-20 13:46 47.12274 20.98460 36522 ft 418 kts 282°
2026-04-20 13:46 47.12866 20.94287 36755 ft 417 kts 282°
2026-04-20 13:46 47.13456 20.90110 36917 ft 419 kts 282°
2026-04-20 13:47 47.14046 20.85922 37095 ft 419 kts 282°
2026-04-20 13:47 47.14635 20.81729 37277 ft 420 kts 282°
2026-04-20 13:47 47.15224 20.77528 37475 ft 420 kts 282°
2026-04-20 13:47 47.15812 20.73322 37656 ft 420 kts 282°
2026-04-20 13:48 47.16399 20.69110 37832 ft 421 kts 282°
2026-04-20 13:48 47.16986 20.64886 37907 ft 423 kts 281°
2026-04-20 13:48 47.18160 20.56396 37915 ft 423 kts 281°
2026-04-20 13:49 47.19322 20.47961 37922 ft 419 kts 281°
2026-04-20 13:49 47.20595 20.39634 37937 ft 416 kts 285°
2026-04-20 13:50 47.22271 20.31518 37935 ft 414 kts 287°
2026-04-20 13:50 47.23994 20.23433 37939 ft 414 kts 287°
2026-04-20 13:51 47.25672 20.15388 37940 ft 414 kts 287°
2026-04-20 13:51 47.27340 20.07249 37941 ft 416 kts 286°
2026-04-20 13:52 47.29003 19.99061 37944 ft 419 kts 286°
2026-04-20 13:52 47.30670 19.90816 37945 ft 421 kts 286°
2026-04-20 13:53 47.32338 19.82529 37951 ft 423 kts 287°
2026-04-20 13:53 47.34009 19.74191 37953 ft 425 kts 286°
2026-04-20 13:54 47.35680 19.65824 37956 ft 426 kts 286°
2026-04-20 13:54 47.37346 19.57442 37965 ft 426 kts 286°
2026-04-20 13:55 47.39007 19.49050 37962 ft 425 kts 286°
2026-04-20 13:55 47.40657 19.40675 37965 ft 425 kts 286°
2026-04-20 13:56 47.42298 19.32313 37961 ft 424 kts 286°
2026-04-20 13:56 47.43930 19.23960 37962 ft 422 kts 286°
2026-04-20 13:57 47.45549 19.15636 37966 ft 421 kts 286°
2026-04-20 13:57 47.47160 19.07321 37983 ft 420 kts 286°
2026-04-20 13:58 47.48759 18.99026 37964 ft 419 kts 286°
2026-04-20 13:58 47.50349 18.90748 37979 ft 418 kts 286°
2026-04-20 13:59 47.51929 18.82483 37985 ft 417 kts 286°
2026-04-20 13:59 47.53504 18.74210 37988 ft 418 kts 286°
2026-04-20 14:00 47.55075 18.65919 38010 ft 419 kts 285°
2026-04-20 14:00 47.56642 18.57611 38000 ft 419 kts 285°
2026-04-20 14:01 47.58204 18.49293 37992 ft 419 kts 285°
2026-04-20 14:01 47.59760 18.40975 37986 ft 419 kts 285°
2026-04-20 14:02 47.61308 18.32662 37988 ft 419 kts 285°
2026-04-20 14:02 47.62848 18.24347 37995 ft 418 kts 285°
2026-04-20 14:03 47.64380 18.16048 37989 ft 417 kts 285°
2026-04-20 14:03 47.65900 18.07774 37994 ft 416 kts 285°
2026-04-20 14:04 47.67414 17.99494 37998 ft 415 kts 285°
2026-04-20 14:04 47.68917 17.91235 37979 ft 414 kts 285°
2026-04-20 14:05 47.70412 17.82982 37987 ft 413 kts 285°
2026-04-20 14:05 47.71898 17.74747 37996 ft 413 kts 285°
2026-04-20 14:06 47.73376 17.66514 37994 ft 413 kts 285°
2026-04-20 14:06 47.74850 17.58270 37995 ft 413 kts 285°
2026-04-20 14:07 47.76318 17.50021 37988 ft 413 kts 285°
2026-04-20 14:07 47.77782 17.41755 38003 ft 414 kts 285°
2026-04-20 14:08 47.79244 17.33462 37998 ft 415 kts 285°
2026-04-20 14:08 47.80706 17.25128 38010 ft 417 kts 285°
2026-04-20 14:09 47.82167 17.16771 38002 ft 418 kts 285°
2026-04-20 14:09 47.83748 17.08442 37997 ft 419 kts 289°
2026-04-20 14:10 47.85786 17.00308 37994 ft 420 kts 291°
2026-04-20 14:10 47.87866 16.92246 38001 ft 420 kts 291°
2026-04-20 14:11 47.89933 16.84095 37995 ft 421 kts 290°
2026-04-20 14:11 47.91974 16.75921 37992 ft 421 kts 290°
2026-04-20 14:12 47.94001 16.67740 37988 ft 420 kts 290°
2026-04-20 14:12 47.96016 16.59570 38001 ft 420 kts 290°
2026-04-20 14:13 47.98026 16.51392 37981 ft 419 kts 290°
2026-04-20 14:13 48.00026 16.43227 38000 ft 419 kts 290°
2026-04-20 14:14 48.02017 16.35069 38008 ft 418 kts 290°
2026-04-20 14:14 48.03999 16.26920 37989 ft 417 kts 290°
2026-04-20 14:15 48.05969 16.18785 37988 ft 416 kts 290°
2026-04-20 14:15 48.07930 16.10663 38003 ft 415 kts 290°
2026-04-20 14:16 48.09882 16.02548 38008 ft 414 kts 290°
2026-04-20 14:16 48.11823 15.94445 37997 ft 413 kts 290°
2026-04-20 14:17 48.13757 15.86345 38000 ft 413 kts 290°
2026-04-20 14:17 48.15680 15.78259 38002 ft 412 kts 290°
2026-04-20 14:18 48.17595 15.70175 38012 ft 411 kts 290°
2026-04-20 14:18 48.19502 15.62099 38009 ft 411 kts 289°
2026-04-20 14:19 48.21401 15.54026 38003 ft 410 kts 289°
2026-04-20 14:19 48.23280 15.46005 38009 ft 410 kts 289°
2026-04-20 14:20 48.25168 15.37918 38020 ft 411 kts 289°
2026-04-20 14:20 48.27053 15.29813 38013 ft 412 kts 289°
2026-04-20 14:21 48.28936 15.21689 38012 ft 412 kts 289°
2026-04-20 14:21 48.30816 15.13545 38023 ft 413 kts 289°
2026-04-20 14:22 48.32696 15.05367 38025 ft 415 kts 289°
2026-04-20 14:22 48.34577 14.97158 38019 ft 416 kts 289°
2026-04-20 14:23 48.36457 14.88920 38030 ft 417 kts 289°
2026-04-20 14:23 48.38336 14.80653 38029 ft 418 kts 289°
2026-04-20 14:24 48.40213 14.72367 38021 ft 419 kts 289°
2026-04-20 14:24 48.42086 14.64058 38027 ft 419 kts 289°
2026-04-20 14:25 48.43956 14.55735 38023 ft 420 kts 289°
2026-04-20 14:25 48.45822 14.47396 38013 ft 420 kts 289°
2026-04-20 14:26 48.47682 14.39051 38019 ft 420 kts 289°
2026-04-20 14:26 48.49534 14.30708 38024 ft 420 kts 289°
2026-04-20 14:27 48.51378 14.22371 38023 ft 419 kts 289°
2026-04-20 14:27 48.53212 14.14042 38041 ft 418 kts 289°
2026-04-20 14:28 48.55038 14.05717 38030 ft 417 kts 289°
2026-04-20 14:28 48.56841 13.97468 38020 ft 416 kts 288°
2026-04-20 14:29 48.58646 13.89173 38030 ft 416 kts 288°
2026-04-20 14:29 48.60442 13.80885 38047 ft 415 kts 288°
2026-04-20 14:30 48.62231 13.72597 38042 ft 415 kts 288°
2026-04-20 14:30 48.64016 13.64299 38046 ft 415 kts 288°
2026-04-20 14:31 48.65493 13.57395 38034 ft 415 kts 288°
2026-04-20 14:31 48.67045 13.48982 38048 ft 416 kts 285°
2026-04-20 14:32 48.68489 13.40510 38044 ft 416 kts 285°
2026-04-20 14:32 48.69948 13.32028 38052 ft 417 kts 285°
2026-04-20 14:33 48.71424 13.23536 38054 ft 417 kts 285°
2026-04-20 14:33 48.72903 13.15036 38049 ft 418 kts 285°
2026-04-20 14:34 48.74377 13.06528 38054 ft 418 kts 285°
2026-04-20 14:34 48.75846 12.98007 38054 ft 418 kts 285°
2026-04-20 14:35 48.77309 12.89483 38057 ft 418 kts 285°
2026-04-20 14:35 48.78763 12.80962 38062 ft 418 kts 285°
2026-04-20 14:36 48.80212 12.72430 38060 ft 418 kts 285°
2026-04-20 14:36 48.81654 12.63902 38063 ft 417 kts 285°
2026-04-20 14:37 48.83089 12.55370 38061 ft 417 kts 285°
2026-04-20 14:37 48.84516 12.46840 38064 ft 417 kts 285°
2026-04-20 14:38 48.85936 12.38313 38074 ft 417 kts 285°
2026-04-20 14:38 48.87355 12.29756 38069 ft 418 kts 285°
2026-04-20 14:39 48.88788 12.21210 38066 ft 418 kts 287°
2026-04-20 14:39 48.90538 12.12795 38072 ft 418 kts 289°
2026-04-20 14:40 48.92373 12.04412 38070 ft 418 kts 289°
2026-04-20 14:40 48.94187 11.96017 38064 ft 418 kts 289°
2026-04-20 14:41 48.95966 11.87654 38068 ft 418 kts 288°
2026-04-20 14:41 48.97743 11.79236 38066 ft 418 kts 288°
2026-04-20 14:42 48.99512 11.70808 38068 ft 418 kts 288°
2026-04-20 14:42 49.01277 11.62370 38069 ft 418 kts 288°
2026-04-20 14:43 49.03034 11.53937 38066 ft 418 kts 288°
2026-04-20 14:43 49.04783 11.45506 38067 ft 417 kts 288°
2026-04-20 14:44 49.06522 11.37087 38081 ft 416 kts 288°
2026-04-20 14:44 49.08330 11.28294 38083 ft 415 kts 288°
2026-04-20 14:45 49.10057 11.19864 38082 ft 415 kts 288°
2026-04-20 14:45 49.11770 11.11463 38087 ft 414 kts 288°
2026-04-20 14:46 49.13473 11.03075 38082 ft 413 kts 288°
2026-04-20 14:46 49.15169 10.94688 38112 ft 413 kts 288°
2026-04-20 14:47 49.16857 10.86304 38117 ft 413 kts 288°
2026-04-20 14:48 49.19375 10.73736 38144 ft 412 kts 288°
2026-04-20 14:48 49.20958 10.65313 38138 ft 412 kts 286°
2026-04-20 14:49 49.22450 10.56853 38097 ft 412 kts 285°
2026-04-20 14:49 49.23938 10.48400 38101 ft 412 kts 286°
2026-04-20 14:50 49.25421 10.39997 38110 ft 412 kts 286°
2026-04-20 14:50 49.26913 10.31540 38096 ft 411 kts 286°
2026-04-20 14:51 49.28399 10.23082 38092 ft 412 kts 285°
2026-04-20 14:51 49.29880 10.14612 38081 ft 412 kts 285°
2026-04-20 14:52 49.31356 10.06131 38088 ft 412 kts 285°
2026-04-20 14:52 49.32830 9.97615 38075 ft 414 kts 285°
2026-04-20 14:53 49.34301 9.89077 38080 ft 415 kts 285°
2026-04-20 14:53 49.35770 9.80510 38070 ft 416 kts 285°
2026-04-20 14:54 49.37236 9.71920 38077 ft 417 kts 285°
2026-04-20 14:54 49.38699 9.63305 38091 ft 417 kts 285°
2026-04-20 14:55 49.40154 9.54690 38092 ft 417 kts 285°
2026-04-20 14:55 49.41605 9.46056 38097 ft 417 kts 285°
2026-04-20 14:56 49.43049 9.37427 38100 ft 417 kts 285°
2026-04-20 14:56 49.44483 9.28808 38103 ft 416 kts 285°
2026-04-20 14:57 49.45910 9.20196 38106 ft 415 kts 285°
2026-04-20 14:57 49.47292 9.11589 38103 ft 415 kts 283°
2026-04-20 14:58 49.48500 9.02918 38113 ft 414 kts 282°
2026-04-20 14:58 49.49673 8.94247 38110 ft 414 kts 283°
2026-04-20 14:59 49.50853 8.85590 38110 ft 413 kts 283°
2026-04-20 14:59 49.52037 8.76945 38121 ft 413 kts 283°
2026-04-20 15:00 49.53220 8.68284 38114 ft 413 kts 283°
2026-04-20 15:00 49.54396 8.59626 38130 ft 413 kts 282°
2026-04-20 15:01 49.55564 8.50974 38123 ft 413 kts 282°
2026-04-20 15:01 49.56725 8.42318 38121 ft 413 kts 282°
2026-04-20 15:02 49.57881 8.33651 38111 ft 413 kts 282°
2026-04-20 15:02 49.59030 8.24982 38122 ft 413 kts 282°
2026-04-20 15:03 49.60174 8.16300 38116 ft 413 kts 282°
2026-04-20 15:03 49.61311 8.07613 38115 ft 414 kts 282°
2026-04-20 15:04 49.62253 8.00377 38125 ft 414 kts 282°
2026-04-20 15:04 49.63380 7.91671 38124 ft 414 kts 282°
2026-04-20 15:05 49.64501 7.82955 38122 ft 415 kts 282°
2026-04-20 15:05 49.65618 7.74219 38126 ft 415 kts 282°
2026-04-20 15:06 49.66728 7.65480 38121 ft 415 kts 282°
2026-04-20 15:06 49.67831 7.56733 38117 ft 415 kts 282°
2026-04-20 15:07 49.68927 7.47995 38128 ft 414 kts 282°
2026-04-20 15:07 49.70014 7.39270 38127 ft 413 kts 282°
2026-04-20 15:08 49.71093 7.30556 38115 ft 413 kts 282°
2026-04-20 15:08 49.72164 7.21842 38105 ft 412 kts 281°
2026-04-20 15:09 49.73227 7.13146 38125 ft 411 kts 281°
2026-04-20 15:09 49.74280 7.04465 38121 ft 411 kts 281°
2026-04-20 15:10 49.75329 6.95768 38114 ft 411 kts 281°
2026-04-20 15:10 49.76371 6.87069 38115 ft 411 kts 281°
2026-04-20 15:11 49.77406 6.78367 38112 ft 412 kts 281°
2026-04-20 15:11 49.78437 6.69644 38125 ft 412 kts 281°
2026-04-20 15:12 49.79463 6.60903 38116 ft 413 kts 281°
2026-04-20 15:12 49.80484 6.52153 38130 ft 414 kts 281°
2026-04-20 15:13 49.81255 6.43333 38132 ft 415 kts 272°
2026-04-20 15:13 49.80612 6.34433 38139 ft 418 kts 261°
2026-04-20 15:14 49.79265 6.25664 38123 ft 420 kts 257°
2026-04-20 15:14 49.77596 6.16970 37652 ft 426 kts 256°
2026-04-20 15:14 49.76750 6.12653 37144 ft 423 kts 257°
2026-04-20 15:15 49.75906 6.08312 36606 ft 420 kts 257°
2026-04-20 15:15 49.75076 6.03997 36025 ft 418 kts 257°
2026-04-20 15:15 49.74254 5.99693 35388 ft 417 kts 257°
2026-04-20 15:15 49.73439 5.95411 34766 ft 415 kts 258°
2026-04-20 15:16 49.72628 5.91143 34203 ft 412 kts 258°
2026-04-20 15:16 49.71824 5.86926 33635 ft 406 kts 258°
2026-04-20 15:16 49.71021 5.82718 32949 ft 405 kts 258°
2026-04-20 15:16 49.70228 5.78578 32400 ft 401 kts 258°
2026-04-20 15:17 49.69443 5.74484 31954 ft 395 kts 258°
2026-04-20 15:17 49.68669 5.70457 31518 ft 389 kts 258°
2026-04-20 15:17 49.67903 5.66484 31074 ft 383 kts 258°
2026-04-20 15:17 49.67147 5.62565 30630 ft 379 kts 258°
2026-04-20 15:18 49.66400 5.58698 30199 ft 374 kts 259°
2026-04-20 15:18 49.65660 5.54880 29822 ft 366 kts 259°
2026-04-20 15:18 49.64938 5.51164 29529 ft 357 kts 259°
2026-04-20 15:18 49.64228 5.47511 29255 ft 358 kts 259°
2026-04-20 15:19 49.63509 5.43791 28994 ft 365 kts 259°
2026-04-20 15:19 49.62783 5.40019 28717 ft 366 kts 261°
2026-04-20 15:19 49.62340 5.36216 28431 ft 356 kts 269°
2026-04-20 15:19 49.62270 5.32421 28127 ft 355 kts 272°
2026-04-20 15:20 49.62255 5.28611 27866 ft 356 kts 272°
2026-04-20 15:20 49.62233 5.24811 27596 ft 353 kts 272°
2026-04-20 15:20 49.62207 5.21033 27344 ft 351 kts 272°
2026-04-20 15:20 49.62177 5.17283 27077 ft 349 kts 272°
2026-04-20 15:21 49.62145 5.13551 26810 ft 347 kts 272°
2026-04-20 15:21 49.62110 5.09844 26506 ft 344 kts 272°
2026-04-20 15:21 49.62073 5.06184 26110 ft 339 kts 272°
2026-04-20 15:21 49.62036 5.02578 25705 ft 334 kts 272°
2026-04-20 15:22 49.61997 4.99012 25289 ft 330 kts 272°
2026-04-20 15:22 49.61959 4.95490 24895 ft 327 kts 273°
2026-04-20 15:22 49.61920 4.92008 24485 ft 323 kts 273°
2026-04-20 15:22 49.61880 4.88557 24090 ft 320 kts 273°
2026-04-20 15:23 49.61839 4.85137 23685 ft 318 kts 273°
2026-04-20 15:23 49.61798 4.81746 23253 ft 314 kts 273°
2026-04-20 15:23 49.61756 4.78395 22854 ft 311 kts 273°
2026-04-20 15:23 49.61714 4.75086 22469 ft 307 kts 273°
2026-04-20 15:24 49.61672 4.71796 22083 ft 306 kts 273°
2026-04-20 15:24 49.61629 4.68526 21698 ft 305 kts 273°
2026-04-20 15:24 49.61586 4.65220 21322 ft 314 kts 272°
2026-04-20 15:24 49.61542 4.61783 20902 ft 326 kts 272°
2026-04-20 15:25 49.61494 4.58291 20494 ft 324 kts 272°
2026-04-20 15:25 49.61442 4.54836 20084 ft 321 kts 272°
2026-04-20 15:25 49.61390 4.51413 19671 ft 318 kts 272°
2026-04-20 15:25 49.61337 4.48021 19270 ft 316 kts 272°
2026-04-20 15:26 49.61285 4.44646 18863 ft 313 kts 272°
2026-04-20 15:26 49.61232 4.41301 18485 ft 311 kts 272°
2026-04-20 15:26 49.61179 4.37979 18019 ft 310 kts 272°
2026-04-20 15:26 49.61126 4.34647 17467 ft 311 kts 272°
2026-04-20 15:27 49.61071 4.31301 16937 ft 312 kts 272°
2026-04-20 15:27 49.61016 4.27949 16417 ft 313 kts 272°
2026-04-20 15:27 49.60959 4.24583 15869 ft 315 kts 271°
2026-04-20 15:27 49.60900 4.21179 15206 ft 321 kts 271°
2026-04-20 15:28 49.60840 4.17695 14463 ft 329 kts 271°
2026-04-20 15:28 49.60777 4.14138 13852 ft 333 kts 270°
2026-04-20 15:28 49.60711 4.10586 13326 ft 331 kts 270°
2026-04-20 15:28 49.60644 4.07038 12851 ft 329 kts 270°
2026-04-20 15:29 49.60576 4.03534 12454 ft 325 kts 270°
2026-04-20 15:29 49.60510 4.00121 12064 ft 321 kts 270°
2026-04-20 15:29 49.60442 3.96659 11671 ft 318 kts 270°
2026-04-20 15:29 49.60375 3.93269 11288 ft 315 kts 270°
2026-04-20 15:30 49.60308 3.89920 10987 ft 309 kts 270°
2026-04-20 15:30 49.60240 3.86640 10731 ft 303 kts 270°
2026-04-20 15:30 49.60175 3.83466 10484 ft 298 kts 270°
2026-04-20 15:30 49.60108 3.80304 10236 ft 293 kts 270°
2026-04-20 15:31 49.60042 3.77162 10012 ft 287 kts 270°
2026-04-20 15:31 49.59977 3.74118 9788 ft 281 kts 271°
2026-04-20 15:31 49.59912 3.71131 9569 ft 277 kts 271°
2026-04-20 15:31 49.59848 3.68184 9351 ft 274 kts 270°
2026-04-20 15:32 49.59786 3.65286 9099 ft 275 kts 270°
2026-04-20 15:32 49.59720 3.62299 8841 ft 275 kts 270°
2026-04-20 15:32 49.59678 3.59388 8579 ft 275 kts 273°
2026-04-20 15:32 49.59867 3.56454 8313 ft 275 kts 281°
2026-04-20 15:33 49.60156 3.53538 8052 ft 275 kts 282°
2026-04-20 15:33 49.60444 3.50626 7808 ft 274 kts 282°
2026-04-20 15:33 49.60739 3.47724 7543 ft 274 kts 281°
2026-04-20 15:33 49.61040 3.44830 7296 ft 274 kts 282°
2026-04-20 15:34 49.61325 3.41908 7211 ft 279 kts 280°
2026-04-20 15:34 49.61492 3.38923 7178 ft 279 kts 277°
2026-04-20 15:34 49.61649 3.35954 7164 ft 276 kts 277°
2026-04-20 15:34 49.61795 3.33007 7174 ft 275 kts 276°
2026-04-20 15:35 49.61950 3.30064 7168 ft 276 kts 278°
2026-04-20 15:35 49.62091 3.27106 7164 ft 277 kts 276°
2026-04-20 15:35 49.62239 3.24156 7165 ft 276 kts 278°
2026-04-20 15:35 49.62379 3.21198 7169 ft 276 kts 277°
2026-04-20 15:36 49.62508 3.18234 7172 ft 277 kts 277°
2026-04-20 15:36 49.62635 3.15269 7170 ft 277 kts 276°
2026-04-20 15:36 49.62781 3.12300 7162 ft 278 kts 278°
2026-04-20 15:36 49.62910 3.09320 7162 ft 279 kts 275°
2026-04-20 15:37 49.63030 3.06339 7176 ft 279 kts 276°
2026-04-20 15:37 49.63160 3.03355 7172 ft 279 kts 276°
2026-04-20 15:37 49.63285 3.00361 7169 ft 280 kts 276°
2026-04-20 15:37 49.63399 2.97363 7165 ft 280 kts 276°
2026-04-20 15:38 49.63513 2.94366 7171 ft 280 kts 275°
2026-04-20 15:38 49.63618 2.91364 7170 ft 280 kts 275°
2026-04-20 15:38 49.63727 2.88368 7164 ft 280 kts 276°
2026-04-20 15:38 49.63824 2.85365 7165 ft 280 kts 275°
2026-04-20 15:39 49.63934 2.82383 7171 ft 279 kts 277°
2026-04-20 15:39 49.64030 2.79396 7175 ft 278 kts 275°
2026-04-20 15:39 49.64137 2.76413 7169 ft 278 kts 275°
2026-04-20 15:39 49.64257 2.73439 7170 ft 278 kts 276°
2026-04-20 15:40 49.64375 2.70468 7178 ft 278 kts 276°
2026-04-20 15:40 49.64480 2.67477 7169 ft 280 kts 276°
2026-04-20 15:40 49.64601 2.64492 7172 ft 279 kts 275°
2026-04-20 15:40 49.64708 2.61480 7177 ft 283 kts 276°
2026-04-20 15:41 49.64804 2.58450 7184 ft 282 kts 275°
2026-04-20 15:41 49.64909 2.55436 7175 ft 281 kts 275°
2026-04-20 15:41 49.65030 2.52432 7174 ft 281 kts 276°
2026-04-20 15:41 49.65140 2.49427 7172 ft 280 kts 275°
2026-04-20 15:42 49.65262 2.46427 7170 ft 279 kts 275°
2026-04-20 15:42 49.65387 2.43445 7174 ft 279 kts 275°
2026-04-20 15:42 49.65510 2.40456 7176 ft 280 kts 276°
2026-04-20 15:42 49.65622 2.37456 7184 ft 281 kts 275°
2026-04-20 15:43 49.65738 2.34450 7178 ft 281 kts 275°
2026-04-20 15:43 49.65845 2.31427 7177 ft 283 kts 276°
2026-04-20 15:43 49.65939 2.28389 7186 ft 284 kts 276°
2026-04-20 15:43 49.66044 2.25350 7183 ft 282 kts 275°
2026-04-20 15:44 49.66160 2.22348 7168 ft 279 kts 276°
2026-04-20 15:44 49.66281 2.19348 6927 ft 280 kts 275°
2026-04-20 15:44 49.66416 2.16355 6605 ft 281 kts 275°
2026-04-20 15:44 49.66551 2.13374 6272 ft 282 kts 276°
2026-04-20 15:45 49.66681 2.10354 5921 ft 283 kts 275°
2026-04-20 15:45 49.66813 2.07281 5599 ft 284 kts 275°
2026-04-20 15:45 49.66944 2.04234 5259 ft 285 kts 276°
2026-04-20 15:45 49.67070 2.01214 4944 ft 286 kts 276°
2026-04-20 15:46 49.67195 1.98165 4671 ft 285 kts 276°
2026-04-20 15:46 49.67315 1.95113 4416 ft 283 kts 274°
2026-04-20 15:46 49.67057 1.92128 4102 ft 281 kts 249°
2026-04-20 15:46 49.65986 1.89658 3885 ft 278 kts 225°
2026-04-20 15:47 49.64612 1.87621 3575 ft 271 kts 222°
2026-04-20 15:47 49.63209 1.85703 3243 ft 269 kts 215°
2026-04-20 15:47 49.61515 1.84585 3023 ft 263 kts 185°
2026-04-20 15:47 49.59784 1.84869 3025 ft 241 kts 157°
2026-04-20 15:48 49.58284 1.85813 2991 ft 226 kts 152°
2026-04-20 15:48 49.56897 1.86752 2978 ft 210 kts 152°
2026-04-20 15:48 49.55641 1.87752 2979 ft 197 kts 133°
2026-04-20 15:48 49.54949 1.89446 3020 ft 186 kts 107°
2026-04-20 15:49 49.54266 1.91170 3007 ft 191 kts 128°
2026-04-20 15:49 49.53695 1.92174 3001 ft 185 kts 121°
2026-04-20 15:49 49.52817 1.94331 2851 ft 175 kts 117°
2026-04-20 15:49 49.52371 1.95349 2738 ft 172 kts 118°
2026-04-20 15:50 49.51700 1.96873 2493 ft 171 kts 118°
2026-04-20 15:50 49.51034 1.98399 2258 ft 172 kts 117°
2026-04-20 15:50 49.50370 1.99927 2031 ft 171 kts 118°
2026-04-20 15:50 49.49711 2.01444 1809 ft 170 kts 118°
2026-04-20 15:51 49.49062 2.02935 1560 ft 164 kts 117°
2026-04-20 15:51 49.48452 2.04336 1388 ft 151 kts 116°
2026-04-20 15:51 49.47876 2.05666 1105 ft 148 kts 116°
2026-04-20 15:51 49.47311 2.06965 946 ft 146 kts 118°
2026-04-20 15:52 49.46739 2.08288 739 ft 151 kts 118°
2026-04-20 15:52 49.46161 2.09635 552 ft 152 kts 120°
2026-04-20 15:52 49.45567 2.10993 360 ft 153 kts 117°
2026-04-20 15:53 49.44801 2.12757 315 ft 38 kts 124°
2026-04-20 15:53 49.44677 2.13043 311 ft 22 kts 123°
2026-04-20 15:53 49.44653 2.13216 308 ft 15 kts 75°
2026-04-20 15:53 49.44736 2.13298 308 ft 15 kts 352°
2026-04-20 15:54 49.44809 2.13198 309 ft 14 kts 304°
2026-04-20 15:54 49.44864 2.13075 312 ft 14 kts 306°
2026-04-20 15:54 49.44916 2.12956 314 ft 13 kts 303°
2026-04-20 15:54 49.44965 2.12841 319 ft 13 kts 304°
2026-04-20 15:55 49.45011 2.12726 321 ft 13 kts 292°
2026-04-20 15:55 49.45024 2.12582 323 ft 15 kts 273°
2026-04-20 15:55 49.45031 2.12414 327 ft 17 kts 274°
2026-04-20 15:55 49.45041 2.12223 327 ft 18 kts 283°
2026-04-20 15:56 49.45112 2.12043 334 ft 23 kts 303°
2026-04-20 15:56 49.45212 2.11813 333 ft 28 kts 304°
2026-04-20 15:56 49.45317 2.11570 336 ft 26 kts 303°
2026-04-20 15:56 49.45415 2.11347 337 ft 19 kts 304°
2026-04-20 15:57 49.45502 2.11362 337 ft 15 kts 42°
2026-04-20 15:57 49.45579 2.11467 347 ft 14 kts 41°
2026-04-20 15:57 49.45653 2.11567 352 ft 14 kts 41°
2026-04-20 15:57 49.45736 2.11603 346 ft 13 kts 329°
2026-04-20 15:58 49.45793 2.11498 348 ft 13 kts 295°
2026-04-20 15:58 49.45760 2.11388 345 ft 12 kts 221°
2026-04-20 15:58 49.45700 2.11295 353 ft 12 kts 245°
2026-04-20 15:58 49.45728 2.11186 350 ft 10 kts 329°
2026-04-20 15:59 49.45768 2.11207 353 ft 5 kts 38°
2026-04-20 15:59 49.45782 2.11222 350 ft 0 kts 33°